Location: Rounton
(54.4000°N, 1.3500°W)
Time: 06:45:23
(UTC+00:00)

SR - Pass Details

Date: 30 November 2021
Orbit: 582 x 872 km, 66.7° (Epoch: 23 January)

Event Time Altitude Azimuth Distance (km) Brightness Sun altitude
Exits shadow 04:48:15 15° 13° (NNE) 1,602 ? -27.0°
Drops below altitude 10° 04:50:01 10° 37° (NE) 1,914 ? -26.7°
Sets 04:53:02 0° 59° (ENE) 2,826 ? -26.3°
